TimeCDT,TemperatureF,Dew PointF,Humidity,Sea Level PressureIn,VisibilityMPH,Wind Direction,Wind SpeedMPH,Gust SpeedMPH,PrecipitationIn,Events,Conditions,WindDirDegrees,DateUTC
12:53 AM,39.9,28.0,63,30.03,10.0,WNW,5.8,-,N/A,,Clear,290,2012-10-30 05:53:00
1:53 AM,39.9,28.0,63,30.01,10.0,WNW,6.9,-,N/A,,Clear,290,2012-10-30 06:53:00
2:53 AM,39.9,27.0,60,29.99,10.0,WNW,8.1,-,N/A,,Clear,300,2012-10-30 07:53:00
3:53 AM,39.9,26.1,58,29.98,10.0,NW,6.9,-,N/A,,Clear,310,2012-10-30 08:53:00
4:53 AM,39.9,26.1,58,29.97,10.0,NW,8.1,-,N/A,,Clear,320,2012-10-30 09:53:00
5:53 AM,39.9,26.1,58,29.96,10.0,WNW,5.8,-,N/A,,Clear,300,2012-10-30 10:53:00
6:53 AM,39.0,26.1,60,29.96,10.0,WNW,6.9,-,N/A,,Clear,290,2012-10-30 11:53:00
7:53 AM,39.9,26.1,58,29.95,10.0,WNW,8.1,-,N/A,,Clear,290,2012-10-30 12:53:00
8:53 AM,42.1,27.0,55,29.95,10.0,WNW,8.1,-,N/A,,Clear,300,2012-10-30 13:53:00
9:53 AM,46.0,27.0,47,29.94,10.0,NW,13.8,20.7,N/A,,Clear,310,2012-10-30 14:53:00
10:53 AM,48.9,26.1,41,29.93,10.0,NW,10.4,20.7,N/A,,Clear,310,2012-10-30 15:53:00
11:53 AM,52.0,27.0,38,29.91,10.0,NW,12.7,25.3,N/A,,Clear,320,2012-10-30 16:53:00
12:53 PM,54.0,26.1,34,29.89,10.0,NW,11.5,20.7,N/A,,Clear,320,2012-10-30 17:53:00
1:53 PM,57.0,27.0,32,29.86,10.0,NW,11.5,26.5,N/A,,Clear,310,2012-10-30 18:53:00
2:53 PM,57.9,26.1,30,29.85,10.0,WNW,15.0,27.6,N/A,,Clear,300,2012-10-30 19:53:00
3:53 PM,57.9,23.0,26,29.84,10.0,NW,12.7,23.0,N/A,,Clear,320,2012-10-30 20:53:00
4:53 PM,57.0,24.1,28,29.84,10.0,WNW,12.7,18.4,N/A,,Clear,300,2012-10-30 21:53:00
5:53 PM,54.0,23.0,30,29.85,10.0,NW,8.1,-,N/A,,Clear,310,2012-10-30 22:53:00
6:53 PM,48.0,26.1,42,29.86,10.0,West,4.6,-,N/A,,Clear,280,2012-10-30 23:53:00
7:53 PM,48.9,26.1,41,29.88,10.0,WNW,5.8,-,N/A,,Clear,300,2012-10-31 00:53:00
8:53 PM,46.0,27.0,47,29.89,10.0,Calm,Calm,-,N/A,,Clear,0,2012-10-31 01:53:00
9:53 PM,43.0,27.0,53,29.90,10.0,West,4.6,-,N/A,,Clear,260,2012-10-31 02:53:00
10:53 PM,43.0,27.0,53,29.89,10.0,West,5.8,-,N/A,,Clear,270,2012-10-31 03:53:00
11:53 PM,39.9,28.0,63,29.89,10.0,West,6.9,-,N/A,,Clear,270,2012-10-31 04:53:00